Volver al catálogo

STARLINK-32093

ActivoComunicacionesVLEO
NORAD 59701·PAYLOAD·🇺🇸 United States

Lanzado May 8, 2024 desde Cape Canaveral Space Force Station

Loading…

Próximos Pases (próximas 24 horas)

TLE

ActualizadoSource: CelesTrak SupGP

Época: Sep 14, 2026, 14:28 UTC

1 59701C 24086V   26257.60326389 -.00027064  00000+0 -98006-3 0  2574
2 59701  43.0032  73.0824 0001362 266.6284  77.4904 15.27598863    12

Sigue STARLINK-32093 en tiempo real con AllMySat

Download on the App Store